[[{"header":{"parameterUnit":"m.s-1","parameterCategory":1,"la1":30.2991,"la2":30.254,"lo1":-89.0895,"lo2":-89.0444,"dy":0.0017,"dx":0.0017,"nx":28,"ny":28,"refTime":"2023-09-15T21:00:00:Z","depth":0,"parameterNumber":2,"parameterNumberName":"U-component_of_WINDS"},"data":[0,0,0,0,0,0,0,0,0,0,0,0,0,0,0,0,0,0,0,0,0,0,0,0,0,0,0,0,0,0,0,0,0,0,0,0,0,0,0,0,0,0,0,0,0,0,0,0,0,0,0,0,0,0,0,0,0,0,-0.3244,-0.3243,0,-0.32,-0.3199,-0.3199,-0.3176,-0.3176,-0.3176,-0.3176,-0.313,-0.3129,-0.3128,0,0,0,0,0,0,0,0,0,0,0,0,0,-0.3307,-0.3306,-0.3244,-0.3243,-0.3242,-0.32,-0.3199,-0.3199,-0.3176,-0.3176,-0.3176,-0.3176,-0.313,-0.3129,-0.3128,0,0,0,0,0,0,0,0,0,0,0,0,0,-0.3273,-0.3305,-0.3244,-0.3226,-0.3224,-0.32,-0.3199,-0.3198,-0.3176,-0.3176,-0.3176,-0.3176,-0.3131,-0.3129,-0.3127,-0.3117,0,0,-0.3122,-0.3121,0,0,0,0,0,0,0,0,-0.3275,-0.3271,-0.3229,-0.3227,-0.3225,-0.3193,-0.3205,-0.3171,-0.3176,-0.3194,-0.3176,-0.3176,-0.3151,-0.3148,-0.3139,-0.3115,-0.3113,-0.3122,-0.3121,-0.312,-0.3119,0,0,0,0,0,0,0,-0.3277,-0.3272,-0.3226,-0.3229,-0.3226,-0.322,-0.3215,-0.3198,-0.3173,-0.3193,-0.3191,-0.3186,-0.315,-0.3141,-0.3138,-0.3112,-0.3122,-0.312,-0.3119,-0.3118,-0.3077,-0.3077,0,0,0,0,0,0,-0.3283,-0.3274,-0.3228,-0.3225,-0.325,-0.3219,-0.3214,-0.3204,-0.3174,-0.3169,-0.3186,-0.3185,-0.3144,-0.314,-0.3136,-0.3123,-0.312,-0.3118,-0.3117,-0.3077,-0.3077,-0.3077,0,0,0,0,0,0,-0.3284,-0.3279,-0.3229,-0.3249,-0.3242,-0.3218,-0.3207,-0.3203,-0.3194,-0.3169,-0.3164,-0.3182,-0.3144,-0.3139,-0.3122,-0.3121,-0.3117,-0.3116,-0.3077,-0.3077,-0.3077,-0.3095,0,0,0,0,0,0,-0.3286,-0.3279,-0.3275,-0.3249,-0.3242,-0.3216,-0.3207,-0.3202,-0.3191,-0.3189,-0.3163,-0.3159,-0.3144,-0.3125,-0.312,-0.3118,-0.3114,-0.3077,-0.3077,-0.3077,-0.3094,-0.3095,-0.3096,0,0,0,0,0,-0.3288,-0.3282,-0.3275,-0.327,-0.3236,-0.3216,-0.3212,-0.3194,-0.3191,-0.3187,-0.3171,-0.316,-0.3122,-0.3123,-0.3118,-0.3115,-0.3077,-0.3077,-0.3077,-0.3094,-0.3095,-0.3096,0,0,0,0,0,0,-0.3308,-0.3278,-0.327,-0.3255,-0.3238,-0.3212,-0.3206,-0.3196,-0.318,-0.3179,-0.3158,-0.3152,-0.3137,-0.3124,-0.3127,-0.3104,-0.3098,-0.3097,-0.3113,-0.3114,-0.3115,-0.3118,-0.3113,0,0,0,0,0,-0.331,-0.3297,-0.3271,-0.326,-0.3252,-0.3231,-0.3221,-0.321,-0.3191,-0.3184,-0.3166,-0.3149,-0.3133,-0.3122,-0.3106,-0.3092,-0.3086,-0.3087,-0.3089,-0.3089,-0.3089,-0.3081,-0.3081,-0.3077,-0.3077,-0.3077,0,0,-0.3315,-0.3297,-0.329,-0.3264,-0.3249,-0.3236,-0.3225,-0.3211,-0.32,-0.3182,-0.3165,-0.3151,-0.313,-0.3115,-0.3107,-0.3104,-0.3089,-0.3089,-0.309,-0.3089,-0.3081,-0.3081,-0.3081,-0.3077,-0.3077,-0.3077,0,0,-0.3317,-0.3302,-0.3292,-0.3278,-0.3256,-0.3242,-0.324,-0.3215,-0.3205,-0.3188,-0.3174,-0.3161,-0.3134,-0.312,-0.3109,-0.3106,-0.3096,-0.3101,-0.3107,-0.3099,-0.3099,-0.3099,-0.3098,-0.3098,-0.31,-0.3101,-0.3101,0,-0.3326,-0.3305,-0.3287,-0.3274,-0.3263,-0.3246,-0.3235,-0.3222,-0.3196,-0.3189,-0.3186,-0.3151,-0.3136,-0.3117,-0.3116,-0.3108,-0.3105,-0.3104,-0.3101,-0.3101,-0.31,-0.3099,-0.3099,-0.3101,-0.3101,-0.3101,-0.3101,0,-0.3317,-0.3303,-0.3297,-0.3273,-0.3261,-0.3249,-0.323,-0.322,-0.3209,-0.3195,-0.3178,-0.3159,-0.3139,-0.3133,-0.3123,-0.3113,-0.3112,-0.3105,-0.3099,-0.3102,-0.3101,-0.31,-0.3103,-0.3102,-0.3102,-0.3102,0,0,-0.333,-0.3297,-0.3295,-0.3284,-0.3259,-0.3248,-0.3235,-0.3216,-0.3208,-0.3191,-0.3179,-0.3157,-0.3151,-0.3138,-0.3126,-0.3119,-0.3118,-0.3113,-0.3112,-0.3115,-0.3107,-0.3112,-0.3112,-0.3111,-0.3111,-0.3111,-0.3108,0,-0.3329,-0.3306,-0.3289,-0.3272,-0.3259,-0.3243,-0.3231,-0.3215,-0.3202,-0.3188,-0.3174,-0.3158,-0.3151,-0.3143,-0.3136,-0.312,-0.3116,-0.312,-0.31,-0.31,-0.3106,-0.3111,-0.3117,-0.3115,-0.3108,-0.3108,-0.3108,0,-0.3324,-0.3308,-0.329,-0.3267,-0.3261,-0.3251,-0.3232,-0.322,-0.3201,-0.3191,-0.3178,-0.3165,-0.3151,-0.3147,-0.3127,-0.3129,-0.3121,-0.3111,-0.3111,-0.3108,-0.3104,-0.3109,-0.3114,-0.3114,-0.3107,-0.3107,-0.3107,0,-0.3336,-0.331,-0.3295,-0.3286,-0.3259,-0.3253,-0.3241,-0.3222,-0.3211,-0.3195,-0.3188,-0.317,-0.316,-0.3146,-0.3129,-0.3127,-0.311,-0.3104,-0.3102,-0.3103,-0.31,-0.31,-0.3104,-0.3094,-0.3094,-0.3094,-0.3094,0,-0.3336,-0.3326,-0.33,-0.3291,-0.3279,-0.3261,-0.3249,-0.3236,-0.3219,-0.3207,-0.3192,-0.3181,-0.3159,-0.3146,-0.3132,-0.3118,-0.3113,-0.3105,-0.3102,-0.3107,-0.3108,-0.31,-0.31,-0.3094,-0.3094,-0.3094,-0.3094,0,-0.3347,-0.3329,-0.3313,-0.3289,-0.3282,-0.3274,-0.3253,-0.3244,-0.323,-0.3216,-0.3211,-0.3189,-0.3173,-0.3154,-0.3131,-0.3122,-0.3109,-0.3103,-0.3115,-0.3113,-0.3112,-0.3113,-0.3112,-0.311,-0.3101,-0.3101,-0.3102,0,-0.3349,-0.334,-0.3315,-0.3306,-0.3295,-0.3281,-0.327,-0.3252,-0.3241,-0.3219,-0.3213,-0.3195,-0.318,-0.3154,-0.3136,-0.3119,-0.3113,-0.3114,-0.311,-0.3116,-0.3113,-0.3114,-0.3113,-0.3115,-0.3115,-0.3115,-0.3115,0,-0.3353,-0.3345,-0.333,-0.3313,-0.3301,-0.3286,-0.327,-0.3264,-0.3242,-0.3231,-0.3214,-0.3203,-0.318,-0.3162,-0.3143,-0.313,-0.3119,-0.3117,-0.3115,-0.312,-0.3128,-0.3124,-0.3118,-0.3117,-0.3117,-0.3117,-0.3117,-0.3116,-0.3359,-0.3351,-0.3332,-0.3317,-0.3303,-0.3289,-0.3279,-0.3265,-0.325,-0.323,-0.322,-0.3203,-0.3185,-0.3157,-0.3145,-0.3132,-0.3128,-0.3126,-0.3126,-0.3125,-0.3127,-0.313,-0.3128,-0.3128,-0.3128,-0.3128,-0.3128,0,-0.3363,-0.335,-0.3336,-0.3315,-0.3303,-0.3294,-0.3276,-0.3267,-0.3252,-0.3236,-0.3222,-0.3202,-0.3186,-0.3166,-0.3148,-0.3141,-0.3136,-0.3137,-0.3138,-0.3135,-0.3131,-0.3134,-0.3142,-0.3142,-0.3142,-0.3142,-0.3142,-0.3142,-0.3364,-0.335,-0.3339,-0.3318,-0.3305,-0.3289,-0.328,-0.3267,-0.3254,-0.3233,-0.3219,-0.3207,-0.319,-0.317,-0.3155,-0.3149,-0.3144,-0.3146,-0.314,-0.3136,-0.3135,-0.3134,-0.3137,-0.3145,-0.3145,-0.3145,-0.3145,-0.3145]},{"header":{"parameterUnit":"m.s-1","parameterCategory":1,"la1":30.2991,"la2":30.254,"lo1":-89.0895,"lo2":-89.0444,"dy":0.0017,"dx":0.0017,"nx":28,"ny":28,"refTime":"2023-09-15T21:00:00:Z","depth":0,"parameterNumber":3,"parameterNumberName":"V-component_of_WINDS"},"data":[0,0,0,0,0,0,0,0,0,0,0,0,0,0,0,0,0,0,0,0,0,0,0,0,0,0,0,0,0,0,0,0,0,0,0,0,0,0,0,0,0,0,0,0,0,0,0,0,0,0,0,0,0,0,0,0,0,0,2.3822,2.3822,0,2.377,2.3769,2.3769,2.3776,2.3777,2.3778,2.3779,2.3717,2.3715,2.3712,0,0,0,0,0,0,0,0,0,0,0,0,0,2.3921,2.3919,2.3822,2.3822,2.3821,2.377,2.3769,2.3769,2.3776,2.3777,2.3778,2.3779,2.3718,2.3715,2.3712,0,0,0,0,0,0,0,0,0,0,0,0,0,2.3874,2.3919,2.3822,2.3819,2.3818,2.377,2.3769,2.3768,2.3776,2.3777,2.3778,2.378,2.3719,2.3715,2.3712,2.3662,0,0,2.37,2.3699,0,0,0,0,0,0,0,0,2.3877,2.387,2.382,2.3819,2.3818,2.3781,2.3782,2.3732,2.3775,2.3792,2.3779,2.378,2.3737,2.3732,2.3719,2.3659,2.3656,2.37,2.3698,2.3696,2.3695,0,0,0,0,0,0,0,2.388,2.3873,2.3801,2.3819,2.3818,2.3817,2.3812,2.3772,2.3757,2.379,2.3791,2.3785,2.3737,2.3722,2.3717,2.3655,2.37,2.3697,2.3695,2.3693,2.355,2.3548,0,0,0,0,0,0,2.3885,2.3875,2.3803,2.38,2.3852,2.3814,2.3809,2.3791,2.3758,2.3754,2.3784,2.3785,2.3728,2.3722,2.3715,2.3653,2.3696,2.3693,2.3691,2.3551,2.3549,2.3548,0,0,0,0,0,0,2.3887,2.3879,2.3805,2.3838,2.3828,2.3811,2.3792,2.379,2.3776,2.3753,2.3749,2.3773,2.3729,2.372,2.3675,2.3651,2.3691,2.3688,2.3553,2.3551,2.3548,2.3529,0,0,0,0,0,0,2.389,2.388,2.3862,2.3837,2.3827,2.3768,2.3791,2.3788,2.377,2.3772,2.3741,2.3737,2.3729,2.3681,2.3671,2.3647,2.3685,2.3555,2.3552,2.3549,2.3532,2.3526,2.3522,0,0,0,0,0,2.3894,2.3858,2.3862,2.3853,2.3805,2.3767,2.3761,2.3754,2.3768,2.3749,2.3734,2.3738,2.3656,2.3676,2.3666,2.3639,2.3557,2.3553,2.3549,2.3534,2.3527,2.3522,0,0,0,0,0,0,2.3878,2.3854,2.3858,2.3814,2.3793,2.3769,2.3745,2.3748,2.372,2.3722,2.3713,2.3706,2.366,2.3645,2.3668,2.3588,2.3608,2.3602,2.3599,2.3593,2.3588,2.3591,2.3682,0,0,0,0,0,2.387,2.3843,2.3823,2.3785,2.3775,2.3762,2.3745,2.3742,2.3718,2.3709,2.3691,2.3666,2.3634,2.3613,2.3582,2.353,2.3522,2.3507,2.3502,2.3498,2.3492,2.3461,2.3453,2.3536,2.3536,2.3536,0,0,2.3851,2.3835,2.3819,2.3782,2.3765,2.3735,2.3754,2.3722,2.3699,2.3703,2.3659,2.3645,2.3616,2.3567,2.3544,2.3553,2.3468,2.3493,2.349,2.3487,2.3457,2.3449,2.3442,2.3533,2.3534,2.3534,0,0,2.3802,2.3789,2.3755,2.3739,2.3714,2.3705,2.3697,2.3673,2.3664,2.3621,2.3623,2.3594,2.354,2.3519,2.3501,2.3444,2.3445,2.3434,2.3407,2.3377,2.337,2.3364,2.3341,2.3334,2.3429,2.3429,2.3429,0,2.3782,2.374,2.3737,2.3705,2.3687,2.3693,2.3657,2.364,2.3605,2.3592,2.3603,2.3535,2.3516,2.3461,2.3447,2.3433,2.3421,2.3436,2.3372,2.3366,2.336,2.3338,2.333,2.3427,2.3428,2.3428,2.3428,0,2.3715,2.3685,2.366,2.363,2.3609,2.3575,2.3565,2.3544,2.3543,2.3532,2.3487,2.3464,2.3429,2.3416,2.3413,2.3359,2.3366,2.3375,2.3393,2.3351,2.333,2.3322,2.3425,2.3426,2.3426,2.3427,0,0,2.3653,2.3622,2.3613,2.3598,2.3571,2.3546,2.3512,2.3479,2.3461,2.3437,2.3405,2.3359,2.3367,2.3347,2.3342,2.3316,2.3269,2.3328,2.3327,2.3316,2.3206,2.3198,2.3188,2.3271,2.327,2.3268,2.3207,0,2.36,2.3542,2.3538,2.3483,2.3454,2.3459,2.3428,2.3406,2.3395,2.3367,2.3354,2.3321,2.3335,2.3322,2.3297,2.3281,2.3247,2.3285,2.3238,2.3237,2.3244,2.3178,2.317,2.3113,2.3199,2.3198,2.3197,0,2.3531,2.3507,2.345,2.3426,2.3414,2.3387,2.3356,2.333,2.3304,2.3298,2.3275,2.3274,2.3235,2.3257,2.3201,2.3228,2.3208,2.3197,2.3195,2.3188,2.3213,2.3167,2.3095,2.3086,2.3185,2.3186,2.3187,0,2.3489,2.3442,2.3402,2.339,2.3361,2.3342,2.3328,2.3305,2.3285,2.3257,2.3244,2.3211,2.3193,2.3166,2.3154,2.3172,2.3098,2.312,2.3089,2.3089,2.3072,2.3073,2.2993,2.3063,2.3063,2.3063,2.3063,0,2.3429,2.3394,2.3383,2.3358,2.3317,2.3312,2.3271,2.3259,2.3238,2.3208,2.3209,2.3181,2.3169,2.3137,2.3128,2.3082,2.3074,2.3065,2.3063,2.3064,2.3065,2.305,2.3052,2.3061,2.3061,2.3062,2.3062,0,2.3376,2.3367,2.3323,2.3301,2.3294,2.3265,2.3244,2.3218,2.3208,2.317,2.3161,2.3143,2.3106,2.3093,2.3048,2.3041,2.2987,2.2989,2.2996,2.2995,2.2964,2.2966,2.287,2.2856,2.2937,2.2937,2.2936,0,2.3337,2.331,2.3285,2.3267,2.3253,2.3223,2.3204,2.3197,2.3176,2.3145,2.3122,2.3086,2.3057,2.2997,2.2978,2.2943,2.2942,2.2911,2.2937,2.2938,2.2939,2.294,2.2936,2.2906,2.2905,2.2904,2.2904,0,2.3269,2.3266,2.3239,2.321,2.3188,2.3164,2.3141,2.3125,2.3114,2.309,2.3054,2.3031,2.2986,2.2949,2.2913,2.2896,2.2896,2.2896,2.2887,2.2886,2.2891,2.2886,2.2981,2.2898,2.2898,2.2899,2.2899,2.2899,2.322,2.3196,2.3174,2.3143,2.3126,2.3104,2.3079,2.3066,2.3036,2.3,2.2998,2.2957,2.2931,2.2883,2.2864,2.2831,2.2839,2.2826,2.2822,2.2818,2.2815,2.2898,2.2824,2.2824,2.2824,2.2825,2.2825,0,2.315,2.3137,2.3109,2.3077,2.3053,2.3059,2.3034,2.3011,2.2977,2.2954,2.2925,2.2882,2.2846,2.2825,2.2788,2.2765,2.2765,2.2756,2.2756,2.2752,2.2811,2.2822,2.2757,2.2757,2.2757,2.2757,2.2757,2.2757,2.3111,2.307,2.3064,2.3013,2.2999,2.2962,2.2946,2.2925,2.2906,2.2859,2.283,2.2818,2.2794,2.2755,2.2722,2.2716,2.2701,2.2691,2.2686,2.2741,2.2748,2.2754,2.2764,2.2688,2.2688,2.2629,2.2628,2.2628]}]]